Regional Weather Roundup
Issued by NWS State College, PA

Home | Current Version | Previous Version | Graphics & Text | Print | Product List | Glossary On
Versions: 1 2 3 4 5 6 7 8 9 10 11 12 13 14 15 16 17 18 19 20 21 22 23 24 25 26 27 28 29 30 31 32 33 34 35 36 37 38 39 40 41 42 43 44 45 46 47 48 49 50
000
ASUS41 KCTP 221310
RWRCTP

REGIONAL WEATHER ROUNDUP
NATIONAL WEATHER SERVICE STATE COLLEGE PA
900 AM EDT MON SEP 22 2014

Note: "fair" indicates few or no clouds below 12,000 feet with no
significant weather and/or obstructions to visibility.

* = STATION THAT DOES NOT REPORT PRECIPITATION /E.G. RAIN...SNOW...ETC/
    THUNDER OR FOG.

PAZ002>004-007>009-013>016-020>023-029>032-221400-
WESTERN PENNSYLVANIA

CITY           SKY/WX    TMP DP  RH WIND       PRES   REMARKS
ERIE           CLOUDY    54  40  59 N10G20    30.07R
MEADVILLE      CLOUDY    49  46  90 NW5       30.07R
FRANKLIN*      CLOUDY    48  43  81 W6        30.07S
NEW CASTLE     NOT AVBL
BEAVER COUNTY  PTSUNNY   52  45  76 NW6       30.09R
BUTLER*        CLOUDY    52  43  71 W7        30.10R
PITTSBURGH INT PTSUNNY   53  43  68 NW16      30.09R
PITTSBURGH     CLOUDY    53  40  61 NW9G21    30.08R
INDIANA*       MOSUNNY   50  48  93 NW12G17   30.10R FOG
LATROBE        PTSUNNY   54  48  82 W9        30.08R
WASHINGTON CO* CLOUDY    52  45  76 W5        30.11R
$$

PAZ004>006-010>012-017>019-024>028-033>037-041-042-045-046-049>053-221400-
CENTRAL PENNSYLVANIA

CITY           SKY/WX    TMP DP  RH WIND       PRES   REMARKS
BRADFORD       CLOUDY    46  43  89 NW12      30.02R
DUBOIS         CLOUDY    49  43  80 NW14G23   30.02R
CLEARFIELD     LGT RAIN  50  46  86 W9        30.03R
JOHNSTOWN      CLOUDY    49  46  90 NW16      30.04R
ALTOONA        LGT RAIN  51  48  89 N8G18     30.03R FOG
STATE COLLEGE  PTSUNNY   52  45  76 NW12G17   30.01R
WILLIAMSPORT   CLOUDY    58  47  66 W13       29.95R
SELINSGROVE    CLOUDY    59  46  62 NW8G17    29.97R
FT INDIANTOWN  MOSUNNY   60  48  64 W10G20    29.95R
CAPITAL CITY   MOSUNNY   61  45  55 NW17G30   29.97R
HARRISBURG     MOSUNNY   62  46  55 NW20G31   29.95R
YORK           MOSUNNY   62  47  57 NW12G21   29.97R
$$

PAZ038>040-043-044-047-048-054-055-060>062-067>071-221400-
EASTERN PENNSYLVANIA

CITY           SKY/WX    TMP DP  RH WIND       PRES   REMARKS
SCRANTON       CLOUDY    57  48  72 NW13      29.92R
MOUNT POCONO   LGT RAIN  53  48  83 NW15G26   29.90R
ALLENTOWN      MOSUNNY   64  50  60 W7G20     29.89R
QUAKERTOWN*    SUNNY     63  50  63 W8        29.90R
READING        SUNNY     63  49  60 NW15G25   29.91R
LANCASTER      SUNNY     61  48  62 NW21G33   29.93R
COATESVILLE    SUNNY     59  50  72 W18G24    29.93R
POTTSTOWN      SUNNY     63  50  62 VRB7G17   29.91R
BLUE BELL      SUNNY     64  52  63 W7        29.89R
DOYLESTOWN     SUNNY     63  50  62 W12G22    29.88R
WILLOW GROVE   NOT AVBL
NORTH PHILA    SUNNY     67  48  50 NW14G21   29.90R
PHILADELPHIA   MOSUNNY   66  48  52 W17       29.90R
$$



USA.gov is the U.S. government's official web portal to all federal, state and local government web resources and services.